Sugar Grove, IL

12:22 AM CST on February 12, 2016 (GMT -0600)
Aurora Municipal

Weather History for KARR - March, 2014

Change the Weather History Date:

Wednesday, March 5, 2014

  Actual Average Record
Temperature  
Mean Temperature 20 °F 32 °F  
Max Temperature 25 °F 42 °F 69 °F (2000)
Min Temperature 15 °F 23 °F -6 °F (2015)
Degree Days  
Heating Degree Days 45 33  
Month to date heating degree days 261 169  
Since 1 July heating degree days 5837 5307  
Cooling Degree Days 0 0  
Month to date cooling degree days 0 0  
Year to date cooling degree days 0 0  
Moisture  
Dew Point 14 °F    
Average Humidity 76    
Maximum Humidity 84    
Minimum Humidity 67    
Precipitation  
Precipitation 0.02 in 0.07 in 0.46 in (2004)
Month to date precipitation T 0.34  
Year to date precipitation 1.85 3.43  
Sea Level Pressure  
Sea Level Pressure 30.37 in    
Wind  
Wind Speed 12 mph (NE)    
Max Wind Speed 21 mph    
Max Gust Speed 24 mph    
Visibility 4 miles    
Events Snow    
T = Trace of Precipitation, MM = Missing Value Source: NWS Daily Summary

Daily Weather History Graph

Daily Weather History Graph

Search for Another Location

Airport or City:

Trip Planner

Search our weather history database for the weather conditions in past years. The results will help you decide how hot, cold, wet, or windy it might be!

Date:

Astronomy

Mar. 05, 2014 Rise Set
Actual Time 6:22 AM CST 5:49 PM CST
Civil Twilight 5:54 AM CST 6:16 PM CST
Nautical Twilight 5:22 AM CST 6:49 PM CST
Astronomical Twilight 4:50 AM CST 7:21 PM CST
Moon 8:43 AM CST (3/5) 11:02 PM CST (3/5)
Length of Visible Light 12h 22m
Length of Day
11h 26m
Waxing Crescent, 23% of the Moon is Illuminated
Mar 5
Waxing Crescent
Mar 8
First Quarter
Mar 16
Full
Mar 23
Last Quarter
Mar 30
New

Hourly Weather History & Observations

Time (CST) Temp. Windchill Dew Point Humidity Pressure Visibility Wind Dir Wind Speed Gust Speed Precip Events Conditions
12:52 AM 19.0 °F 12.3 °F 12.0 °F 74% 30.28 in 7.0 mi NNE 4.6 mph - N/A   Mostly Cloudy
1:52 AM 21.0 °F 16.2 °F 14.0 °F 74% 30.30 in 7.0 mi NE 3.5 mph - N/A   Overcast
2:52 AM 21.9 °F 10.4 °F 14.0 °F 72% 30.30 in 9.0 mi NE 11.5 mph - N/A   Overcast
3:32 AM 19.9 °F 5.2 °F 14.0 °F 78% 30.27 in 2.5 mi NE 17.3 mph - 0.00 in Snow Light Snow
3:52 AM 19.9 °F 6.7 °F 14.0 °F 78% 30.31 in 4.0 mi NE 13.8 mph - 0.00 in Snow Light Snow
4:07 AM 19.0 °F 5.6 °F 15.1 °F 85% 30.28 in 2.0 mi NE 13.8 mph - 0.00 in Snow Light Snow
4:14 AM 19.0 °F 5.0 °F 15.1 °F 85% 30.29 in 1.8 mi NE 15.0 mph - 0.00 in Snow Light Snow
4:23 AM 19.0 °F 6.1 °F 15.1 °F 85% 30.29 in 2.0 mi NE 12.7 mph - 0.00 in Snow Light Snow
4:35 AM 19.0 °F 6.1 °F 15.1 °F 85% 30.29 in 2.0 mi NE 12.7 mph - 0.00 in Snow Light Snow
4:44 AM 19.0 °F 5.6 °F 15.1 °F 85% 30.30 in 1.5 mi NE 13.8 mph - 0.00 in Snow Light Snow
4:52 AM 19.0 °F 6.1 °F 15.1 °F 85% 30.34 in 1.5 mi NE 12.7 mph - 0.00 in Snow Light Snow
5:02 AM 19.0 °F 6.8 °F 15.1 °F 85% 30.31 in 3.0 mi NE 11.5 mph - 0.00 in Snow Light Snow
5:15 AM 19.0 °F 6.1 °F 15.1 °F 85% 30.31 in 1.8 mi ENE 12.7 mph - 0.00 in Snow Light Snow
5:24 AM 19.0 °F 6.1 °F 15.1 °F 85% 30.31 in 1.2 mi NE 12.7 mph - 0.00 in Snow Light Snow
5:52 AM 19.0 °F 6.1 °F 15.1 °F 85% 30.35 in 1.0 mi NE 12.7 mph - 0.00 in Snow Light Snow
6:32 AM 19.0 °F 6.1 °F 14.0 °F 81% 30.33 in 2.5 mi NE 12.7 mph - 0.00 in Snow Light Snow
6:39 AM 19.0 °F 6.1 °F 14.0 °F 81% 30.33 in 1.2 mi NE 12.7 mph - 0.00 in Snow Light Snow
6:52 AM 19.0 °F 5.6 °F 14.0 °F 81% 30.38 in 2.5 mi NE 13.8 mph - 0.00 in Snow Light Snow
7:52 AM 19.9 °F 6.7 °F 15.1 °F 81% 30.41 in 2.5 mi NE 13.8 mph - 0.00 in Snow Light Snow
7:59 AM 19.9 °F 7.3 °F 15.1 °F 81% 30.37 in 1.2 mi NE 12.7 mph - 0.00 in Snow Light Snow
8:52 AM 19.9 °F 8.6 °F 16.0 °F 85% 30.41 in 1.0 mi ENE 10.4 mph - 0.00 in Snow Light Snow
9:42 AM 21.9 °F 10.4 °F 15.1 °F 75% 30.38 in 2.5 mi ENE 11.5 mph - 0.00 in Snow Light Snow
9:52 AM 21.9 °F 8.2 °F 15.1 °F 75% 30.42 in 2.5 mi ENE 16.1 mph 20.7 mph 0.00 in Snow Light Snow
10:08 AM 21.9 °F 8.7 °F 16.0 °F 78% 30.38 in 2.5 mi ENE 15.0 mph - 0.00 in Snow Light Snow
10:12 AM 21.9 °F 8.2 °F 16.0 °F 78% 30.38 in 3.0 mi ENE 16.1 mph - 0.00 in Snow Light Snow
10:17 AM 21.9 °F 7.8 °F 16.0 °F 78% 30.38 in 2.5 mi ENE 17.3 mph - 0.00 in Snow Light Snow
10:40 AM 23.0 °F 9.6 °F 16.0 °F 74% 30.38 in 2.5 mi ENE 16.1 mph - 0.00 in Snow Light Snow
10:47 AM 23.0 °F 9.2 °F 15.8 °F 74% 30.38 in 3.0 mi ENE 17.3 mph - 0.00 in Snow Light Snow
10:52 AM 23.0 °F 9.2 °F 16.0 °F 74% 30.42 in 4.0 mi ENE 17.3 mph - 0.00 in Snow Light Snow
11:52 AM 23.0 °F 9.2 °F 17.1 °F 78% 30.43 in 3.0 mi ENE 17.3 mph - 0.01 in Snow Light Snow
12:36 PM 23.0 °F 9.6 °F 17.1 °F 78% 30.39 in 2.0 mi ENE 16.1 mph - 0.00 in Snow Light Snow
12:52 PM 24.1 °F 11.5 °F 16.0 °F 71% 30.43 in 2.0 mi ENE 15.0 mph - 0.00 in Snow Light Snow
1:52 PM 24.1 °F 12.0 °F 16.0 °F 71% 30.42 in 2.0 mi ENE 13.8 mph - 0.01 in Snow Light Snow
1:59 PM 24.1 °F 11.0 °F 16.0 °F 71% 30.38 in 8.0 mi NE 16.1 mph - 0.00 in   Overcast
2:52 PM 23.0 °F 9.6 °F 14.0 °F 68% 30.42 in 10.0 mi NE 16.1 mph - 0.00 in   Mostly Cloudy
3:22 PM 23.0 °F 9.2 °F 14.0 °F 68% 30.39 in 10.0 mi NE 17.3 mph - N/A   Scattered Clouds
3:52 PM 21.9 °F 8.2 °F 12.9 °F 68% 30.43 in 10.0 mi NE 16.1 mph - N/A   Partly Cloudy
4:52 PM 21.9 °F 9.8 °F 12.9 °F 68% 30.43 in 10.0 mi NE 12.7 mph - N/A   Clear
5:52 PM 21.0 °F 9.3 °F 12.0 °F 68% 30.44 in 10.0 mi NE 11.5 mph - N/A   Partly Cloudy
6:52 PM 19.9 °F 7.9 °F 12.0 °F 71% 30.45 in 10.0 mi NE 11.5 mph - N/A   Partly Cloudy
7:52 PM 19.0 °F 9.0 °F 10.9 °F 71% 30.46 in 10.0 mi NE 8.1 mph - N/A   Clear
8:52 PM 18.0 °F 7.7 °F 10.9 °F 74% 30.47 in 10.0 mi NNE 8.1 mph - N/A   Overcast
9:52 PM 18.0 °F 6.9 °F 10.9 °F 74% 30.45 in 10.0 mi NE 9.2 mph - N/A   Overcast
10:52 PM 18.0 °F 7.7 °F 10.9 °F 74% 30.44 in 9.0 mi NE 8.1 mph - N/A   Overcast
11:52 PM 16.0 °F 10.4 °F 10.0 °F 77% 30.44 in 8.0 mi NE 3.5 mph - N/A   Clear